Mount Holly, NJ

11:23 PM EST on November 21, 2017 (GMT -0500)
South Jersey Regional

Weather History for KVAY - February, 2014

Change the Weather History Date:

Sunday, February 16, 2014

  Actual Average (KPNE) Record (KPNE)
Temperature  
Mean Temperature 24 °F -  
Max Temperature 28 °F 42 °F 61 °F (1999)
Min Temperature 19 °F 25 °F 3 °F (2015)
Degree Days  
Heating Degree Days 42    
Moisture  
Dew Point 10 °F    
Average Humidity 54    
Maximum Humidity 65    
Minimum Humidity 45    
Precipitation  
Precipitation 0.00 in - - ()
Sea Level Pressure  
Sea Level Pressure 30.01 in    
Wind  
Wind Speed 9 mph (WNW)    
Max Wind Speed 13 mph    
Max Gust Speed 21 mph    
Visibility 10 miles    
Events      
Averages and records for this station are not official NWS values.
T = Trace of Precipitation, MM = Missing Value Source: NWS Daily Summary

Daily Weather History Graph

Daily Weather History Graph

Search for Another Location

Airport or City:

Trip Planner

Search our weather history database for the weather conditions in past years. The results will help you decide how hot, cold, wet, or windy it might be!

Date:

Astronomy

Feb. 16, 2014 Rise Set
Actual Time 6:50 AM EST 5:36 PM EST
Civil Twilight 6:23 AM EST 6:04 PM EST
Nautical Twilight 5:51 AM EST 6:35 PM EST
Astronomical Twilight 5:20 AM EST 7:07 PM EST
Moon 7:30 PM EST (2/16) 7:19 AM EST (2/16)
Length of Visible Light 11h 41m
Length of Day
10h 45m
Full, 97% of the Moon is Illuminated
Feb 16
Full
Feb 22
Last Quarter
Mar 1
New
Mar 8
First Quarter
Mar 16
Full

Hourly Weather History & Observations

Time (EST) Temp. Windchill Dew Point Humidity Pressure Visibility Wind Dir Wind Speed Gust Speed Precip Events Conditions
12:54 AM 27.0 °F 18.7 °F 12.0 °F 53% 29.86 in 10.0 mi WNW 8.1 mph 20.7 mph N/A   Clear
1:54 AM 25.0 °F 15.5 °F 10.0 °F 53% 29.89 in 10.0 mi WNW 9.2 mph 19.6 mph N/A   Clear
2:54 AM 24.1 °F 14.4 °F 10.0 °F 55% 29.90 in 10.0 mi WNW 9.2 mph 17.3 mph N/A   Clear
3:54 AM 23.0 °F 13.1 °F 9.0 °F 55% 29.94 in 10.0 mi West 9.2 mph 18.4 mph N/A   Clear
4:54 AM 21.9 °F 10.4 °F 9.0 °F 58% 29.96 in 10.0 mi WNW 11.5 mph - N/A   Clear
5:54 AM 21.0 °F 12.4 °F 9.0 °F 60% 29.97 in 10.0 mi Variable 6.9 mph - N/A   Clear
6:54 AM 19.9 °F 8.6 °F 7.0 °F 57% 29.97 in 10.0 mi NW 10.4 mph 16.1 mph N/A   Clear
7:54 AM 19.9 °F 12.1 °F 8.1 °F 60% 30.00 in 10.0 mi WNW 5.8 mph - N/A   Clear
8:54 AM 21.0 °F 9.9 °F 8.1 °F 57% 30.02 in 10.0 mi West 10.4 mph 16.1 mph N/A   Clear
9:54 AM 21.9 °F 9.8 °F 8.1 °F 55% 30.03 in 10.0 mi West 12.7 mph - N/A   Clear
10:54 AM 23.0 °F 14.7 °F 9.0 °F 55% 30.03 in 10.0 mi WNW 6.9 mph 16.1 mph N/A   Clear
11:54 AM 25.0 °F 17.1 °F 9.0 °F 51% 30.02 in 10.0 mi WNW 6.9 mph - N/A   Clear
12:54 PM 27.0 °F 17.3 °F 9.0 °F 47% 30.00 in 10.0 mi WNW 10.4 mph 16.1 mph N/A   Clear
1:54 PM 28.0 °F 19.3 °F 9.0 °F 45% 29.99 in 10.0 mi WNW 9.2 mph - N/A   Partly Cloudy
2:54 PM 28.0 °F 19.3 °F 9.0 °F 45% 29.99 in 10.0 mi NW 9.2 mph - N/A   Mostly Cloudy
3:54 PM 28.0 °F 20.8 °F 9.0 °F 45% 29.99 in 10.0 mi NW 6.9 mph - N/A   Overcast
4:54 PM 27.0 °F 19.5 °F 9.0 °F 47% 30.00 in 10.0 mi WNW 6.9 mph - N/A   Mostly Cloudy
5:54 PM 27.0 °F 20.5 °F 10.0 °F 49% 30.03 in 10.0 mi West 5.8 mph - N/A   Overcast
6:54 PM 27.0 °F 18.7 °F 10.0 °F 49% 30.06 in 10.0 mi West 8.1 mph - N/A   Overcast
7:54 PM 27.0 °F 17.3 °F 12.0 °F 53% 30.08 in 10.0 mi West 10.4 mph - N/A   Partly Cloudy
8:54 PM 26.1 °F 19.4 °F 12.9 °F 58% 30.09 in 10.0 mi WNW 5.8 mph - N/A   Partly Cloudy
9:54 PM 25.0 °F 18.1 °F 14.0 °F 63% 30.12 in 10.0 mi WNW 5.8 mph - N/A   Scattered Clouds
10:54 PM 24.1 °F 16.0 °F 14.0 °F 65% 30.14 in 10.0 mi NW 6.9 mph - N/A   Scattered Clouds
11:54 PM 23.0 °F 15.8 °F 12.9 °F 65% 30.16 in 10.0 mi NW 5.8 mph - N/A   Clear